Home > Weather > Santa Maria > Past weeks

Flag for Cabo Verde Weather for the Past 2 Weeks in Santa Maria, Cabo Verde

Now
75 °F

Broken clouds.


Feels Like: 77 °F
Forecast: 69 / 80 °F
Wind: 21 mph from Northeast

Location: Sal

Current Time: Feb 12, 2016 at 3:27:18 PM

Latest Report: Feb 12, 2016 at 3:00 PM


Visibility: N/A

Pressure: 30.04 "Hg

Humidity: 74%

Dew point: 66 °F

Location of Santa MariaLocation

Historic Weather in Santa Maria — Graph

°F

Santa Maria Temperature Yesterday

Maximum temperature yesterday: 79 °F (at 2:00 PM)
Minimum temperature yesterday: 72 °F (at 1:00 AM)
Average temperature yesterday: 74 °F

High & Low Weather Summary for the Past Weeks

 TemperatureHumidityPressure
High84 °F (Feb 8, 12:00 PM)94% (Feb 5, 4:00 AM)30.12 "Hg (Feb 5, 4:00 AM)
Low68 °F (Feb 5, 4:00 AM)40% (Feb 1, 12:00 PM)29.92 "Hg (Feb 3, 4:00 PM)
Average75 °F70%30.04 "Hg
* Reported Jan 28 2:00 PM — Feb 12 2:00 PM, Santa Maria, Weather by CustomWeather, © 2016

Note: Actual official high and low records may vary slightly from our data, if they occured in-between our weather recording intervals... More about our weather records

Advertising

Santa Maria Weather History for the Previous 24 Hours

 ConditionsComfort  
Time TempWeatherWind HumidityBarometerVisibility
2:00 PM
Fri, Feb 12
75 °FBroken clouds.21 mph74%30.04 "HgN/A
1:00 PM77 °FBroken clouds.23 mph69%30.04 "HgN/A
12:00 PM77 °FBroken clouds.21 mph69%30.07 "HgN/A
11:00 AM77 °FPartly sunny.20 mph69%30.09 "HgN/A
10:00 AM77 °FScattered clouds.20 mph69%30.09 "HgN/A
9:00 AM73 °FPassing clouds.18 mph78%30.07 "HgN/A
8:00 AM72 °FSunny.18 mph83%30.04 "Hg10 mi
7:00 AM72 °FBroken clouds.16 mph83%30.04 "HgN/A
6:00 AM70 °FSunny.17 mph88%30.01 "Hg10 mi
5:00 AM72 °FSunny.16 mph83%30.01 "Hg10 mi
4:00 AM72 °FPartly cloudy.15 mph83%30.01 "HgN/A
3:00 AM72 °FPartly cloudy.15 mph83%30.01 "HgN/A
2:00 AM72 °FPartly cloudy.16 mph83%30.01 "HgN/A
1:00 AM72 °FPassing clouds.16 mph83%30.04 "HgN/A
12:00 AM72 °FPassing clouds.17 mph83%30.04 "HgN/A
11:00 PM
Thu, Feb 11
72 °FPassing clouds.17 mph78%30.04 "HgN/A
10:00 PM73 °FPassing clouds.16 mph74%30.04 "HgN/A
9:00 PM73 °FPassing clouds.17 mph65%30.04 "HgN/A
8:00 PM73 °FPassing clouds.22 mph69%30.01 "HgN/A
7:00 PM73 °FPassing clouds.22 mph78%29.98 "HgN/A
6:00 PM75 °FPassing clouds.21 mph69%29.98 "HgN/A
5:00 PM77 °FPassing clouds.25 mph65%29.98 "HgN/A
4:00 PM77 °FScattered clouds.26 mph65%29.98 "HgN/A
3:00 PM77 °FScattered clouds.26 mph69%29.98 "HgN/A
Weather by CustomWeather, © 2016

See weather overviewHow to use our weather pages